Oslo Airport, Norway

7:39 AM CET on November 18, 2017 (GMT +0100)
Gardermoen

Weather History for ENGM - May, 2013

Change the Weather History Date:

Sunday, May 12, 2013

  Actual Average Record
Temperature  
Mean Temperature 45 °F -  
Max Temperature 48 °F 59 °F 73 °F (2001)
Min Temperature 42 °F 42 °F 33 °F (1999)
Degree Days  
Heating Degree Days 20    
Moisture  
Dew Point 42 °F    
Average Humidity 85    
Maximum Humidity 100    
Minimum Humidity 52    
Precipitation  
Precipitation 0.12 in 0.09 in - ()
Sea Level Pressure  
Sea Level Pressure 29.71 in    
Wind  
Wind Speed 6 mph ()    
Max Wind Speed 16 mph    
Max Gust Speed -    
Visibility 5.9 miles    
Events Rain    
Averages and records for this station are not official NWS values.
T = Trace of Precipitation, MM = Missing Value Source: Averaged Metar Reports

Daily Weather History Graph

Daily Weather History Graph

Search for Another Location

Airport or City:

Trip Planner

Search our weather history database for the weather conditions in past years. The results will help you decide how hot, cold, wet, or windy it might be!

Date:

Astronomy

May. 12, 2013 Rise Set
Actual Time 4:43 AM CEST 9:42 PM CEST
Civil Twilight 3:42 AM CEST 10:44 PM CEST
Nautical Twilight 1:44 AM CEST 12:39 AM CEST
Astronomical Twilight Sun does not rise Sun does not rise
Moon 6:15 AM CEST (5/12) No Moon Set
Length of Visible Light 19h 02m
Length of Day
16h 58m
Waxing Crescent, 5% of the Moon is Illuminated
May 12
Waxing Crescent
May 18
First Quarter
May 25
Full
May 31
Last Quarter
Jun 8
New

Hourly Weather History & Observations

Time (CEST) Temp. Windchill Dew Point Humidity Pressure Visibility Wind Dir Wind Speed Gust Speed Precip Events Conditions
12:20 AM 48.2 °F - 44.6 °F 87% 29.77 in 6.2 mi SE 3.5 mph - N/A   Mostly Cloudy
12:50 AM 48.2 °F - 44.6 °F 87% 29.77 in 6.2 mi SE 4.6 mph - N/A Rain Light Rain Showers
1:20 AM 48.2 °F - 46.4 °F 93% 29.74 in 6.2 mi SE 5.8 mph - N/A   Mostly Cloudy
1:50 AM 48.2 °F - 44.6 °F 87% 29.74 in 6.2 mi ESE 4.6 mph - N/A   Mostly Cloudy
2:00 AM 47 °F - 45 °F 92%  in 6 mi ESE 2.2 mph - - Rain Light Rain Showers
2:20 AM 48.2 °F - 44.6 °F 87% 29.74 in 5.6 mi ESE 3.5 mph - N/A Rain Light Rain Showers
2:50 AM 46.4 °F - 44.6 °F 93% 29.71 in 5.6 mi Variable 2.3 mph - N/A Rain Light Rain
3:20 AM 46.4 °F - 44.6 °F 93% 29.71 in 5.0 mi Variable 1.2 mph - N/A Rain Light Rain Showers
3:50 AM 46.4 °F - 44.6 °F 93% 29.71 in 5.0 mi NNE 2.3 mph - N/A   Overcast
4:20 AM 46.4 °F - 44.6 °F 93% 29.71 in 3.7 mi NE 2.3 mph - N/A   Overcast
4:50 AM 46.4 °F - 44.6 °F 93% 29.68 in 5.0 mi NNE 1.2 mph - N/A   Mostly Cloudy
5:20 AM 44.6 °F 43.1 °F 44.6 °F 100% 29.68 in - NNE 3.5 mph - N/A   Mostly Cloudy
5:50 AM 46.4 °F 45.2 °F 44.6 °F 93% 29.68 in 5.0 mi NE 3.5 mph - N/A Rain Light Rain Showers
6:20 AM 46.4 °F - 44.6 °F 93% 29.68 in 5.0 mi Variable 2.3 mph - N/A Rain Light Rain Showers
6:50 AM 46.4 °F - 44.6 °F 93% 29.68 in 3.7 mi Variable 2.3 mph - N/A Rain Light Rain Showers
7:20 AM 46.4 °F - 44.6 °F 93% 29.65 in 5.6 mi Variable 2.3 mph - N/A Rain Rain Showers
7:50 AM 46.4 °F 45.2 °F 44.6 °F 93% 29.65 in 5.0 mi NNE 3.5 mph - N/A Rain Light Rain Showers
8:00 AM 47 °F - 46 °F 92%  in 5 mi ESE 2.2 mph - - Rain Light Rain Showers
8:20 AM 46.4 °F 45.2 °F 44.6 °F 93% 29.65 in 4.3 mi East 3.5 mph - N/A Rain Rain Showers
8:50 AM 46.4 °F 42.4 °F 44.6 °F 93% 29.65 in 5.0 mi SE 8.1 mph - N/A Rain Rain Showers
9:20 AM 46.4 °F 42.4 °F 44.6 °F 93% 29.65 in 5.6 mi SSE 8.1 mph - N/A Rain Rain Showers
9:50 AM 46.4 °F 41.9 °F 44.6 °F 93% 29.65 in 5.6 mi South 9.2 mph - N/A Rain Light Rain Showers
10:20 AM 46.4 °F 40.4 °F 42.8 °F 87% 29.68 in 6.2 mi South 13.8 mph - N/A Rain Light Rain Showers
10:50 AM 46.4 °F 41.5 °F 42.8 °F 87% 29.68 in 6.2 mi South 10.4 mph - N/A   Mostly Cloudy
11:20 AM 46.4 °F 41.9 °F 42.8 °F 87% 29.68 in 6.2 mi South 9.2 mph - N/A   Mostly Cloudy
11:50 AM 46.4 °F 39.8 °F 41.0 °F 81% 29.68 in 6.2 mi South 16.1 mph - N/A   Mostly Cloudy
12:20 PM 44.6 °F 37.8 °F 42.8 °F 93% 29.68 in 5.6 mi SSE 15.0 mph - N/A   Mostly Cloudy
12:50 PM 44.6 °F 39.2 °F 41.0 °F 87% 29.68 in 5.6 mi South 10.4 mph - N/A Rain Light Rain Showers
1:20 PM 44.6 °F 38.4 °F 42.8 °F 93% 29.68 in 6.2 mi South 12.7 mph - N/A   Overcast
1:50 PM 44.6 °F 38.1 °F 42.8 °F 93% 29.71 in 6.2 mi South 13.8 mph - N/A   Overcast
2:00 PM 45 °F - 43 °F 90%  in 12 mi South 11.2 mph - -   Partly Cloudy
2:20 PM 44.6 °F 38.4 °F 42.8 °F 93% 29.71 in 6.2 mi South 12.7 mph - N/A   Overcast
2:50 PM 46.4 °F 41.1 °F 42.8 °F 87% 29.71 in 6.2 mi South 11.5 mph - N/A   Overcast
3:20 PM 46.4 °F 40.7 °F 42.8 °F 87% 29.71 in 6.2 mi South 12.7 mph - N/A Rain Light Rain Showers
3:50 PM 44.6 °F 37.8 °F 42.8 °F 93% 29.71 in 6.2 mi South 15.0 mph - N/A Rain Light Rain Showers
4:20 PM 44.6 °F 37.8 °F 42.8 °F 93% 29.74 in 6.2 mi South 15.0 mph - N/A   Overcast
4:50 PM 44.6 °F 37.8 °F 42.8 °F 93% 29.74 in 6.2 mi South 15.0 mph - N/A   Light Drizzle
5:20 PM 44.6 °F 39.2 °F 42.8 °F 93% 29.74 in 6.2 mi South 10.4 mph - N/A   Mostly Cloudy
5:50 PM 46.4 °F 40.4 °F 42.8 °F 87% 29.71 in 6.2 mi South 13.8 mph - N/A   Mostly Cloudy
6:20 PM 46.4 °F 41.1 °F 41.0 °F 81% 29.74 in 6.2 mi SSW 11.5 mph - N/A   Mostly Cloudy
6:50 PM 48.2 °F - 39.2 °F 71% 29.74 in 6.2 mi South 8.1 mph - N/A   Mostly Cloudy
7:20 PM 48.2 °F - 37.4 °F 66% 29.74 in 6.2 mi South 5.8 mph - N/A   Mostly Cloudy
7:50 PM 48.2 °F - 35.6 °F 62% 29.74 in 6.2 mi SW 8.1 mph - N/A   Scattered Clouds
8:00 PM 47 °F - 35 °F 52%  in 40 mi South 8.9 mph - -   Partly Cloudy
8:20 PM 48.2 °F - 35.6 °F 62% 29.74 in 6.2 mi South 5.8 mph - N/A   Scattered Clouds
8:50 PM 48.2 °F - 33.8 °F 58% 29.74 in 6.2 mi South 10.4 mph - N/A   Partly Cloudy
9:20 PM 46.4 °F 42.4 °F 33.8 °F 62% 29.74 in - South 8.1 mph - N/A   Clear
9:50 PM 44.6 °F 41.4 °F 33.8 °F 66% 29.74 in - SSW 5.8 mph - N/A   Clear
10:20 PM 44.6 °F 42.2 °F 35.6 °F 71% 29.74 in - South 4.6 mph - N/A   Clear
10:50 PM 44.6 °F - 35.6 °F 71% 29.74 in 6.2 mi Variable 2.3 mph - N/A   Scattered Clouds
11:20 PM 42.8 °F - 37.4 °F 81% 29.74 in 6.2 mi Calm Calm - N/A   Mostly Cloudy
11:50 PM 42.8 °F - 37.4 °F 81% 29.74 in 6.2 mi Variable 2.3 mph - N/A Rain Light Rain